Location: El Corozo
(10.5833°N, 66.9667°W)
Time: 22:42:22
(UTC+00:00)

Cosmos 990 Rocket - Pass Details

Date: 23 May 2024
Orbit: 745 x 765 km, 74.0° (Epoch: 25 June)

Event Time Altitude Azimuth Distance (km) Brightness Sun altitude
Exits shadow 08:44:47 26° 203° (SSW) 1,454 5.0 -18.9°
Maximum altitude 08:47:43 73° 282° (WNW) 790 3.9 -18.2°
Drops below altitude 10° 08:52:51 10° 7° (N) 2,269 6.9 -17.1°
Sets 08:55:13 0° 10° (N) 3,189 7.7 -16.6°
